[[{"header":{"parameterUnit":"m.s-1","parameterCategory":1,"la1":30.2991,"la2":30.254,"lo1":-89.0895,"lo2":-89.0444,"dy":0.0017,"dx":0.0017,"nx":28,"ny":28,"refTime":"2024-10-02T03:00:00:Z","depth":0,"parameterNumber":2,"parameterNumberName":"U-component_of_WINDS"},"data":[0,0,0,0,0,0,0,0,0,0,0,0,0,0,0,0,0,0,0,0,0,0,0,0,0,0,0,0,0,0,0,0,0,0,0,0,0,0,0,0,0,0,0,0,0,0,0,0,0,0,0,0,0,0,0,0,0,0,-1.4199,-1.4199,0,-1.4227,-1.4227,-1.4228,-1.4194,-1.4192,-1.4191,-1.419,-1.4217,-1.4219,-1.4221,0,0,0,0,0,0,0,0,0,0,0,0,0,-1.4114,-1.4115,-1.4199,-1.4199,-1.42,-1.4227,-1.4227,-1.4228,-1.4194,-1.4192,-1.4191,-1.4189,-1.4216,-1.4219,-1.4221,0,0,0,0,0,0,0,0,0,0,0,0,0,-1.4147,-1.4116,-1.4199,-1.4186,-1.4185,-1.4227,-1.4227,-1.4228,-1.4194,-1.4192,-1.419,-1.4189,-1.4216,-1.4218,-1.4221,-1.4276,0,0,-1.423,-1.4231,0,0,0,0,0,0,0,0,-1.4145,-1.415,-1.4188,-1.4187,-1.4186,-1.4205,-1.4207,-1.4244,-1.4195,-1.4191,-1.419,-1.4188,-1.4214,-1.4217,-1.4227,-1.4278,-1.4279,-1.423,-1.4232,-1.4233,-1.4234,0,0,0,0,0,0,0,-1.4143,-1.4149,-1.421,-1.4188,-1.4187,-1.4178,-1.4181,-1.4214,-1.4213,-1.4191,-1.4189,-1.4192,-1.4214,-1.4224,-1.4227,-1.4279,-1.423,-1.4233,-1.4234,-1.4235,-1.4378,-1.438,0,0,0,0,0,0,-1.4142,-1.4147,-1.4209,-1.4211,-1.4161,-1.4181,-1.4184,-1.4201,-1.4212,-1.4212,-1.4194,-1.4191,-1.422,-1.4224,-1.4228,-1.4294,-1.4233,-1.4236,-1.4237,-1.4376,-1.4378,-1.438,0,0,0,0,0,0,-1.4141,-1.4148,-1.4208,-1.4178,-1.4185,-1.4185,-1.4204,-1.4202,-1.4213,-1.4215,-1.4214,-1.4205,-1.4219,-1.4224,-1.4265,-1.4295,-1.4237,-1.424,-1.4373,-1.4376,-1.4379,-1.4427,0,0,0,0,0,0,-1.4138,-1.4148,-1.4169,-1.4179,-1.4187,-1.4245,-1.4205,-1.4204,-1.4218,-1.4214,-1.4225,-1.4225,-1.4218,-1.4261,-1.4268,-1.4298,-1.4242,-1.4371,-1.4375,-1.4378,-1.4423,-1.4432,-1.4439,0,0,0,0,0,-1.4136,-1.4181,-1.4171,-1.4178,-1.4214,-1.4247,-1.4252,-1.4243,-1.422,-1.4242,-1.4243,-1.4224,-1.429,-1.4265,-1.4273,-1.4304,-1.4369,-1.4374,-1.4378,-1.442,-1.443,-1.4439,0,0,0,0,0,0,-1.4174,-1.4182,-1.4171,-1.4221,-1.4234,-1.4241,-1.4268,-1.4254,-1.4273,-1.4269,-1.4256,-1.4259,-1.4303,-1.4307,-1.428,-1.4358,-1.4326,-1.4332,-1.4355,-1.4365,-1.4372,-1.4371,-1.4244,0,0,0,0,0,-1.4188,-1.4215,-1.4221,-1.4264,-1.4271,-1.4269,-1.4283,-1.4275,-1.4288,-1.4293,-1.4297,-1.4309,-1.4333,-1.4348,-1.437,-1.4423,-1.4425,-1.4448,-1.4456,-1.4462,-1.4469,-1.4498,-1.4509,-1.4396,-1.4396,-1.4396,0,0,-1.4218,-1.4226,-1.4244,-1.4272,-1.4281,-1.4309,-1.4274,-1.4304,-1.4325,-1.4297,-1.4337,-1.434,-1.4353,-1.4401,-1.4422,-1.4406,-1.45,-1.4468,-1.4474,-1.4476,-1.4504,-1.4515,-1.4524,-1.4399,-1.4398,-1.4398,0,0,-1.4288,-1.4296,-1.4334,-1.4344,-1.4358,-1.4356,-1.4365,-1.4375,-1.4377,-1.4417,-1.4397,-1.442,-1.4461,-1.4471,-1.4482,-1.4555,-1.4539,-1.4562,-1.4605,-1.4633,-1.4642,-1.465,-1.4678,-1.4688,-1.4568,-1.4568,-1.4568,0,-1.4323,-1.4365,-1.4355,-1.4388,-1.4401,-1.4378,-1.4416,-1.4426,-1.4446,-1.4456,-1.4437,-1.4488,-1.4495,-1.4545,-1.4564,-1.4572,-1.4583,-1.4562,-1.4642,-1.465,-1.4657,-1.4683,-1.4693,-1.4571,-1.4571,-1.457,-1.457,0,-1.4409,-1.4438,-1.4467,-1.4489,-1.4505,-1.454,-1.4535,-1.4553,-1.4543,-1.4543,-1.4584,-1.4591,-1.4615,-1.4625,-1.4616,-1.4675,-1.4664,-1.4644,-1.4611,-1.4671,-1.4695,-1.4705,-1.4575,-1.4574,-1.4573,-1.4572,0,0,-1.4504,-1.452,-1.4531,-1.4541,-1.4555,-1.4577,-1.4611,-1.4635,-1.4651,-1.4665,-1.4694,-1.4729,-1.471,-1.4722,-1.4714,-1.4739,-1.4798,-1.4715,-1.4715,-1.4732,-1.4865,-1.4882,-1.4894,-1.4787,-1.4789,-1.479,-1.4864,0,-1.4575,-1.4636,-1.4628,-1.4686,-1.4713,-1.4691,-1.4721,-1.4732,-1.4733,-1.4756,-1.4755,-1.4781,-1.4754,-1.4761,-1.4785,-1.4786,-1.4825,-1.478,-1.4814,-1.4815,-1.4814,-1.4906,-1.4924,-1.4994,-1.4874,-1.4875,-1.4876,0,-1.4666,-1.4686,-1.4747,-1.4758,-1.4769,-1.4796,-1.4817,-1.4839,-1.4852,-1.485,-1.4864,-1.4851,-1.4885,-1.485,-1.4897,-1.4867,-1.488,-1.4882,-1.4885,-1.4889,-1.4851,-1.4915,-1.5016,-1.5027,-1.4891,-1.489,-1.4889,0,-1.4733,-1.4773,-1.4816,-1.4824,-1.4838,-1.4857,-1.4863,-1.4874,-1.4889,-1.4907,-1.4917,-1.4938,-1.495,-1.4967,-1.496,-1.4935,-1.5009,-1.4973,-1.5009,-1.5009,-1.5027,-1.5027,-1.5134,-1.5032,-1.5032,-1.5032,-1.5032,0,-1.4814,-1.4853,-1.4846,-1.4872,-1.4915,-1.4904,-1.4946,-1.495,-1.4959,-1.4986,-1.4966,-1.4991,-1.498,-1.5004,-1.4998,-1.5039,-1.5043,-1.5044,-1.5042,-1.5047,-1.5047,-1.5057,-1.5052,-1.5035,-1.5034,-1.5033,-1.5033,0,-1.4896,-1.4892,-1.4937,-1.4946,-1.4949,-1.4981,-1.4988,-1.5012,-1.5011,-1.5044,-1.5052,-1.505,-1.5077,-1.5071,-1.51,-1.5097,-1.5148,-1.5139,-1.5145,-1.5143,-1.5181,-1.5178,-1.5299,-1.5315,-1.5202,-1.5203,-1.5204,0,-1.4949,-1.4978,-1.4991,-1.5008,-1.5016,-1.5042,-1.5058,-1.5048,-1.5065,-1.5082,-1.5104,-1.513,-1.515,-1.5195,-1.5196,-1.5218,-1.5211,-1.5252,-1.5214,-1.5218,-1.5214,-1.5213,-1.5217,-1.526,-1.5261,-1.5262,-1.5263,0,-1.5044,-1.5041,-1.5065,-1.5088,-1.5107,-1.5125,-1.514,-1.5155,-1.5146,-1.5166,-1.5194,-1.521,-1.5241,-1.5267,-1.5288,-1.5293,-1.5278,-1.5275,-1.5285,-1.5291,-1.5294,-1.5295,-1.5167,-1.5272,-1.5272,-1.5271,-1.527,-1.527,-1.5115,-1.514,-1.5154,-1.5181,-1.5191,-1.5207,-1.5231,-1.5232,-1.5256,-1.5281,-1.5273,-1.5306,-1.5318,-1.5344,-1.5352,-1.5377,-1.5362,-1.5376,-1.538,-1.5384,-1.539,-1.5288,-1.5381,-1.538,-1.538,-1.538,-1.538,0,-1.5211,-1.5218,-1.5243,-1.5266,-1.5288,-1.527,-1.5287,-1.5306,-1.5335,-1.5347,-1.5368,-1.5401,-1.5426,-1.5429,-1.5453,-1.5472,-1.5466,-1.5479,-1.5479,-1.548,-1.5401,-1.5391,-1.5484,-1.5484,-1.5484,-1.5484,-1.5484,-1.5484,-1.5264,-1.5307,-1.5306,-1.5354,-1.536,-1.5393,-1.5404,-1.5418,-1.5428,-1.5466,-1.5488,-1.5489,-1.5498,-1.5522,-1.5545,-1.5545,-1.5555,-1.5572,-1.557,-1.5496,-1.5486,-1.5476,-1.5467,-1.5574,-1.5574,-1.5647,-1.5648,-1.5648]},{"header":{"parameterUnit":"m.s-1","parameterCategory":1,"la1":30.2991,"la2":30.254,"lo1":-89.0895,"lo2":-89.0444,"dy":0.0017,"dx":0.0017,"nx":28,"ny":28,"refTime":"2024-10-02T03:00:00:Z","depth":0,"parameterNumber":3,"parameterNumberName":"V-component_of_WINDS"},"data":[0,0,0,0,0,0,0,0,0,0,0,0,0,0,0,0,0,0,0,0,0,0,0,0,0,0,0,0,0,0,0,0,0,0,0,0,0,0,0,0,0,0,0,0,0,0,0,0,0,0,0,0,0,0,0,0,0,0,-3.9427,-3.9428,0,-3.9526,-3.9527,-3.9528,-3.9496,-3.9494,-3.9492,-3.949,-3.9588,-3.9593,-3.9597,0,0,0,0,0,0,0,0,0,0,0,0,0,-3.9208,-3.9213,-3.9427,-3.9428,-3.943,-3.9526,-3.9527,-3.9529,-3.9496,-3.9494,-3.9491,-3.9489,-3.9587,-3.9592,-3.9598,0,0,0,0,0,0,0,0,0,0,0,0,0,-3.9305,-3.9214,-3.9427,-3.9425,-3.9426,-3.9526,-3.9527,-3.9529,-3.9497,-3.9494,-3.9491,-3.9488,-3.9585,-3.9592,-3.9598,-3.9705,0,0,-3.962,-3.9623,0,0,0,0,0,0,0,0,-3.9299,-3.9313,-3.9424,-3.9426,-3.9427,-3.9496,-3.9486,-3.9588,-3.9498,-3.947,-3.949,-3.9486,-3.956,-3.9569,-3.9594,-3.9709,-3.9713,-3.962,-3.9624,-3.9627,-3.9629,0,0,0,0,0,0,0,-3.9293,-3.9308,-3.9466,-3.9426,-3.9427,-3.9419,-3.9429,-3.9505,-3.9531,-3.9472,-3.947,-3.9482,-3.956,-3.9587,-3.9596,-3.9715,-3.962,-3.9626,-3.963,-3.9633,-3.9923,-3.9926,0,0,0,0,0,0,-3.9286,-3.9303,-3.9463,-3.9469,-3.9354,-3.9425,-3.9437,-3.9477,-3.9531,-3.9536,-3.9485,-3.9481,-3.9577,-3.9588,-3.9599,-3.9728,-3.9627,-3.9634,-3.9638,-3.9919,-3.9924,-3.9928,0,0,0,0,0,0,-3.9281,-3.93,-3.9459,-3.9386,-3.9405,-3.9433,-3.9477,-3.948,-3.9508,-3.954,-3.9544,-3.9509,-3.9575,-3.959,-3.9679,-3.9731,-3.9637,-3.9643,-3.9915,-3.9921,-3.9926,-3.9986,0,0,0,0,0,0,-3.9275,-3.9299,-3.934,-3.9387,-3.9409,-3.9538,-3.9481,-3.9484,-3.952,-3.9515,-3.9564,-3.9568,-3.9574,-3.9669,-3.9686,-3.9739,-3.9648,-3.9911,-3.9918,-3.9924,-3.9979,-3.9993,-4.0004,0,0,0,0,0,-3.9267,-3.9352,-3.9342,-3.9362,-3.9461,-3.9541,-3.9554,-3.9559,-3.9524,-3.9566,-3.9587,-3.9567,-3.9722,-3.9678,-3.9697,-3.9753,-3.9907,-3.9916,-3.9924,-3.9974,-3.999,-4.0004,0,0,0,0,0,0,-3.9309,-3.9358,-3.9348,-3.945,-3.9492,-3.9535,-3.9588,-3.9576,-3.9627,-3.962,-3.9624,-3.9635,-3.9727,-3.9749,-3.9699,-3.9859,-3.981,-3.9822,-3.9842,-3.9857,-3.9869,-3.9862,-3.9654,0,0,0,0,0,-3.9331,-3.9392,-3.9431,-3.9518,-3.954,-3.956,-3.9595,-3.9596,-3.9638,-3.9655,-3.9683,-3.9724,-3.9783,-3.9821,-3.9876,-3.9982,-3.9992,-4.003,-4.0042,-4.0052,-4.0063,-4.0121,-4.0138,-3.9954,-3.9954,-3.9954,0,0,-3.9375,-3.941,-3.9448,-3.9527,-3.956,-3.9623,-3.9575,-3.9643,-3.969,-3.9665,-3.9752,-3.9774,-3.982,-3.9919,-3.9963,-3.994,-4.0116,-4.0062,-4.007,-4.0075,-4.0131,-4.0148,-4.0164,-3.9959,-3.9958,-3.9958,0,0,-3.9489,-3.9521,-3.9598,-3.9631,-3.9681,-3.9694,-3.9713,-3.9758,-3.9772,-3.9859,-3.9843,-3.9897,-3.9998,-4.0032,-4.0062,-4.019,-4.0174,-4.0208,-4.0272,-4.0329,-4.0343,-4.0356,-4.0403,-4.0419,-4.0218,-4.0218,-4.0218,0,-3.9538,-3.9633,-3.9638,-3.9709,-3.9744,-3.9726,-3.9803,-3.9835,-3.99,-3.9925,-3.9897,-4.0023,-4.0053,-4.016,-4.0191,-4.0216,-4.0237,-4.0202,-4.0341,-4.0354,-4.0366,-4.041,-4.0428,-4.0222,-4.0222,-4.0221,-4.0221,0,-3.9691,-3.9758,-3.9813,-3.9878,-3.992,-3.9993,-4.0008,-4.005,-4.0047,-4.0063,-4.0152,-4.0187,-4.025,-4.0275,-4.0272,-4.0382,-4.0366,-4.034,-4.0291,-4.0388,-4.0429,-4.0446,-4.0228,-4.0226,-4.0225,-4.0224,0,0,-3.9834,-3.9902,-3.9922,-3.9952,-4.0006,-4.0057,-4.0129,-4.0191,-4.0227,-4.0272,-4.0334,-4.0419,-4.0396,-4.0431,-4.0431,-4.0481,-4.0581,-4.0449,-4.045,-4.0473,-4.0705,-4.0725,-4.0744,-4.0571,-4.0574,-4.0576,-4.0701,0,-3.9953,-4.0082,-4.0089,-4.0205,-4.0267,-4.0251,-4.0314,-4.0354,-4.0371,-4.0425,-4.0443,-4.0504,-4.0468,-4.0489,-4.0538,-4.0559,-4.0628,-4.055,-4.0627,-4.063,-4.0617,-4.0766,-4.0787,-4.0903,-4.0717,-4.072,-4.0722,0,-4.0109,-4.0161,-4.0284,-4.0331,-4.0357,-4.0414,-4.0472,-4.0524,-4.0568,-4.0577,-4.0617,-4.061,-4.0684,-4.0632,-4.0734,-4.0681,-4.0713,-4.0728,-4.0733,-4.0741,-4.0683,-4.0779,-4.094,-4.0958,-4.0748,-4.0746,-4.0744,0,-4.0202,-4.0303,-4.039,-4.0415,-4.0471,-4.0512,-4.0537,-4.0578,-4.0616,-4.0666,-4.069,-4.0748,-4.078,-4.0825,-4.0835,-4.0796,-4.0937,-4.0885,-4.0946,-4.0946,-4.0977,-4.0976,-4.1147,-4.0997,-4.0997,-4.0996,-4.0996,0,-4.0335,-4.0411,-4.0433,-4.0486,-4.0571,-4.0578,-4.0662,-4.0683,-4.0721,-4.0778,-4.0767,-4.082,-4.083,-4.0885,-4.0893,-4.0977,-4.0991,-4.1,-4.1002,-4.1002,-4.1001,-4.1023,-4.1016,-4.1001,-4.1,-4.0999,-4.0998,0,-4.0453,-4.0471,-4.0565,-4.061,-4.0624,-4.0684,-4.0723,-4.0774,-4.079,-4.0863,-4.088,-4.0905,-4.097,-4.0984,-4.1061,-4.1066,-4.1166,-4.1159,-4.1152,-4.1151,-4.1212,-4.1206,-4.1405,-4.1431,-4.1263,-4.1264,-4.1265,0,-4.0537,-4.0596,-4.0648,-4.0686,-4.0714,-4.0775,-4.0813,-4.0822,-4.0862,-4.0918,-4.0963,-4.1027,-4.1079,-4.1184,-4.1208,-4.1267,-4.1262,-4.1327,-4.127,-4.1269,-4.1264,-4.1261,-4.1267,-4.1338,-4.134,-4.1341,-4.1343,0,-4.0684,-4.069,-4.0747,-4.0807,-4.0854,-4.0901,-4.0946,-4.0978,-4.0992,-4.1038,-4.1106,-4.1146,-4.1225,-4.1289,-4.1348,-4.1373,-4.1361,-4.136,-4.1378,-4.1379,-4.1373,-4.1378,-4.1182,-4.1356,-4.1355,-4.1354,-4.1353,-4.1352,-4.0788,-4.084,-4.0886,-4.0949,-4.0984,-4.1027,-4.1078,-4.1101,-4.1157,-4.1223,-4.1225,-4.1298,-4.1342,-4.142,-4.1449,-4.1506,-4.1485,-4.151,-4.1517,-4.1523,-4.1529,-4.1363,-4.1516,-4.1516,-4.1516,-4.1515,-4.1515,0,-4.0936,-4.0965,-4.1023,-4.1087,-4.1137,-4.1122,-4.1171,-4.1214,-4.128,-4.1322,-4.1373,-4.1451,-4.1513,-4.1543,-4.1604,-4.1644,-4.164,-4.166,-4.1658,-4.1664,-4.1544,-4.1523,-4.1663,-4.1663,-4.1663,-4.1663,-4.1663,-4.1663,-4.1018,-4.1106,-4.1117,-4.1222,-4.1249,-4.1323,-4.1352,-4.1391,-4.1425,-4.1513,-4.1565,-4.1584,-4.1622,-4.1686,-4.1742,-4.1749,-4.1773,-4.1796,-4.18,-4.1687,-4.1672,-4.1658,-4.1639,-4.18,-4.1801,-4.1916,-4.1917,-4.1918]}]]